{"data":{"norad_id":67625,"epoch":"2026-09-19T00:59:16.650816Z","epoch_age_seconds":195676,"freshness":"STALE","line1":"1 67625U 26020J   26262.04116494  .00019875  00000+0  72950-3 0  9998","line2":"2 67625  43.0008 127.8854 0001570 277.2865  82.7808 15.27594748 35685","mean_motion":15.27594748,"eccentricity":0.000157,"inclination_deg":43.0008,"raan_deg":127.8854,"arg_perigee_deg":277.2865,"mean_anomaly_deg":82.7808,"bstar":0.0007295,"rev_number":3568,"period_min":94.265838625415,"perigee_km":481.92773629349,"apogee_km":484.08213486126,"semimajor_km":6861.1419355774,"source":"CELESTRAK","updated_at":"2026-09-20T09:00:43.612421Z"}}